Powrót do katalogu

SL-18 DEB

AktywnyLEO
NORAD 22567·DEBRIS·🇷🇺 Russia

Wystrzelony Mar 25, 1993 z Plesetsk Cosmodrome

Loading…

Następne Przeloty (najbliższe 24 godziny)

TLE

ŚwieżeSource: Space-Track

Epoka: Sep 14, 2026, 02:33 UTC

1 22567U 93014C   26257.10679234  .00000884  00000-0  22703-3 0  9990
2 22567  75.7493 308.7425 0146214 302.8381  76.5351 14.44926342746835

Śledź SL-18 DEB w czasie rzeczywistym z AllMySat

Download on the App Store